Location: Marcé
(47.5801°N, 0.3280°W)
Time: 22:38:09
(UTC+01:00)

Transit 2A - Pass Details

Date: 04 December 2021
Orbit: 591 x 967 km, 66.7° (Epoch: 16 January)

Event Time Altitude Azimuth Distance (km) Brightness Sun altitude
Rises 23:04:35 0° 148° (SSE) 3,302 - -56.9°
Reaches altitude 10° 23:08:59 10° 114° (ESE) 2,480 - -57.5°
Maximum altitude 23:10:32 11° 98° (E) 2,435 - -57.6°
Drops below altitude 10° 23:12:07 10° 83° (E) 2,549 - -57.8°
Sets 23:16:51 0° 51° (NE) 3,578 - -58.4°
